RH
6 9 12 16 18 22 24 24 24 27 35 37 32 35 34 28 28 26 23 22 20 18 14 12 13 16 20 21 22 24 25 24 18 21 28 26 19 8 4 2 -0 3 12 33 68 95 102 103 101 101 96 81 70 71 86 94 92 88 91 101 105 104 104 105 102 102 104 90 77 84 92 86 69 46 21 11 14 6 4 17 23 27 36 35 33 34 31 63 62 20 12 9 47 66 27 26 49
5 6 10 14 17 21 26 28 28 30 35 36 33 34 32 28 28 24 18 15 13 11 10 9 10 11 13 15 16 17 16 16 15 18 21 19 15 9 5 4 10 13 16 37 74 98 103 104 102 100 94 83 75 83 92 85 78 66 63 83 99 103 104 103 99 102 98 84 83 94 88 63 36 14 10 14 11 2 11 26 28 36 38 33 32 33 39 71 76 32 15 17 41 72 54 41 72
5 5 7 11 15 18 23 26 29 36 36 31 30 28 26 25 23 19 15 12 10 9 9 8 8 8 9 12 12 13 13 13 13 14 13 11 10 7 5 8 25 35 34 49 77 97 102 104 97 85 84 93 98 99 93 78 73 59 49 61 74 81 87 92 91 84 74 80 89 76 48 23 8 3 10 9 5 7 17 29 35 44 40 36 36 39 54 75 86 46 16 21 34 56 59 63 82
6 5 6 8 11 14 20 23 25 31 28 23 22 20 19 19 17 16 15 14 12 9 9 8 8 9 11 13 14 15 14 14 12 10 9 8 7 6 6 7 17 31 50 77 92 98 102 101 90 78 79 91 96 93 85 80 78 62 54 57 59 67 77 81 73 64 67 76 61 31 13 5 1 2 5 3 5 12 23 36 46 50 40 41 42 55 77 70 72 57 29 28 41 53 48 61 83
7 6 6 6 8 11 20 20 17 19 18 18 18 16 16 18 17 17 17 15 13 11 10 9 11 14 15 16 16 16 17 16 12 10 8 9 9 10 15 17 27 45 73 99 101 100 103 98 81 68 74 83 84 81 74 84 99 85 75 78 78 80 80 72 62 57 52 38 20 9 4 -0 1 3 4 2 6 17 34 50 54 49 40 45 51 77 95 60 55 70 58 42 47 63 48 47 83
6 5 5 6 7 8 17 17 11 11 11 15 17 17 18 20 19 17 15 13 11 11 11 13 15 16 17 18 18 19 20 19 16 17 17 22 26 29 41 50 63 80 95 104 101 101 99 89 71 61 69 76 76 71 65 77 99 97 89 91 86 80 73 63 55 42 20 6 9 6 -0 3 7 5 5 3 7 23 46 62 55 42 45 57 71 97 94 60 63 88 87 63 52 63 55 42 67
5 6 5 6 8 8 15 15 8 7 9 14 17 19 20 19 17 14 11 11 11 12 15 17 20 21 24 25 27 29 28 29 30 32 35 40 44 50 65 77 87 97 104 105 101 97 89 77 66 71 82 83 80 76 74 78 87 87 84 81 74 69 61 47 32 16 2 4 9 4 6 12 9 4 4 4 10 34 60 65 49 41 60 76 91 105 92 76 72 85 97 82 69 67 69 59 53
5 10 8 8 10 5 7 7 4 5 8 13 14 16 16 14 11 10 10 10 13 17 21 26 29 31 36 37 39 43 44 46 46 47 49 52 57 61 69 79 87 93 93 91 89 84 77 68 67 83 90 89 90 89 86 81 77 77 74 66 61 60 44 22 10 6 6 11 14 13 16 12 5 2 1 4 17 47 66 60 50 51 76 93 99 102 96 95 76 76 103 102 85 61 73 89 71
8 14 12 16 14 1 -0 1 1 4 7 9 11 11 10 9 9 11 13 16 23 30 36 40 42 42 45 48 51 54 54 53 51 51 52 56 62 68 72 75 78 80 80 81 82 82 84 84 90 99 96 94 92 87 80 73 73 69 61 51 44 39 20 6 8 14 16 20 22 18 12 5 2 -0 1 11 32 60 69 62 61 67 87 98 101 101 98 104 81 72 99 108 98 69 76 102 98
13 18 17 22 16 -0 -0 1 1 4 7 8 8 8 9 10 13 19 25 33 42 48 52 51 51 53 54 55 54 52 50 49 50 52 53 56 61 67 74 77 81 89 93 93 93 96 102 103 105 103 100 98 83 74 72 73 73 57 45 40 25 12 5 11 23 23 17 18 16 10 8 6 4 5 8 18 39 65 73 64 65 84 99 98 100 102 102 103 75 69 96 102 103 94 89 97 101
17 18 17 19 13 5 4 2 5 8 8 9 9 9 12 18 23 27 31 41 50 55 56 54 54 57 57 55 51 47 45 46 52 55 55 58 62 68 74 77 82 91 97 99 102 105 105 103 101 96 94 86 68 63 67 70 66 45 31 23 7 4 15 24 28 22 10 7 6 9 12 11 12 16 20 24 40 62 71 63 61 81 94 97 102 100 103 98 70 72 99 100 99 102 99 101 100
15 14 12 14 11 8 9 7 8 10 11 12 12 12 16 24 31 34 39 46 53 56 56 54 53 54 53 51 52 50 45 43 47 52 55 57 60 66 74 79 82 86 92 97 101 100 97 94 87 79 73 65 56 51 50 49 42 28 15 6 3 15 30 21 12 11 5 6 12 18 16 12 16 21 26 30 43 59 66 62 60 67 69 79 85 83 96 95 85 89 99 101 97 100 100 102 101
9 7 5 8 9 9 13 15 11 11 15 16 17 17 20 24 29 35 46 54 59 62 59 55 54 52 51 53 56 51 44 39 36 40 44 45 45 50 58 69 79 87 92 91 87 82 76 71 65 59 52 48 46 38 31 26 21 15 5 1 7 19 27 12 2 6 7 15 17 16 13 16 24 26 29 32 43 57 67 68 62 61 61 67 64 70 97 102 101 97 92 92 79 88 103 99 99
10 9 9 10 9 10 16 18 15 14 16 18 22 22 24 27 32 41 50 58 64 67 64 62 64 61 58 60 55 41 34 32 27 28 31 33 34 38 44 51 60 69 73 71 68 63 56 50 49 46 40 39 36 28 20 19 26 21 6 1 6 16 18 7 4 10 12 14 10 12 21 31 38 35 29 32 43 53 70 80 67 63 67 73 71 72 95 101 102 99 93 91 66 63 86 88 87
18 19 19 21 19 16 18 20 18 17 18 21 25 27 28 32 43 57 65 69 71 71 69 71 73 72 68 61 45 28 25 25 22 22 23 26 29 33 37 39 43 49 54 53 51 44 35 30 25 22 21 20 19 22 23 35 48 28 6 5 10 14 13 9 10 13 12 9 11 23 34 34 35 35 30 30 46 51 59 74 73 71 72 81 83 77 95 101 102 104 90 86 70 50 56 67 71
20 21 23 29 29 25 23 26 25 21 24 27 28 27 27 34 48 65 74 77 77 71 67 68 69 70 65 50 30 19 18 18 17 18 19 21 24 27 28 29 31 34 35 30 24 16 13 13 10 12 9 5 12 19 23 41 49 21 7 14 13 11 11 14 14 15 15 13 20 30 32 32 30 27 25 24 37 43 44 56 66 70 70 76 75 69 87 92 86 82 62 59 64 59 62 70 71
24 20 27 35 35 33 30 31 32 29 30 29 29 28 25 26 32 42 48 52 55 53 50 49 49 49 42 30 19 15 14 14 16 17 18 19 19 20 20 19 17 15 13 9 7 5 7 9 10 17 12 11 20 14 9 27 34 24 24 20 11 10 14 19 19 19 15 10 17 24 24 29 29 21 20 20 22 25 24 30 40 49 56 60 62 62 65 60 51 46 38 41 50 57 64 72 80
37 30 25 32 39 41 37 38 38 32 29 29 31 29 23 19 20 27 33 38 42 43 42 39 35 30 24 18 15 13 12 13 15 16 15 15 13 12 10 8 7 7 9 9 9 7 7 6 8 12 6 8 17 7 1 12 25 38 35 16 10 16 21 24 23 17 11 8 15 21 22 22 24 24 25 21 17 16 11 14 17 20 28 32 37 42 40 34 31 28 24 27 27 32 35 43 57
37 47 32 26 35 42 42 45 47 40 32 28 26 24 23 26 32 36 38 39 39 37 34 30 26 21 16 14 13 14 15 16 17 18 16 15 12 10 8 7 10 13 13 11 9 5 4 6 6 6 1 -0 6 4 3 8 19 30 21 8 13 19 20 19 15 11 10 11 14 17 20 21 21 21 20 16 14 14 10 15 14 8 9 11 17 22 23 22 23 23 20 18 15 16 15 19 21
18 42 45 34 27 34 41 47 54 51 38 27 23 26 32 36 38 38 35 33 31 29 27 22 19 14 12 12 14 15 16 17 18 18 17 15 12 10 10 11 13 13 11 9 6 5 6 7 5 3 1 1 6 9 10 10 9 7 4 6 12 13 12 11 8 10 11 10 10 11 13 17 16 12 12 12 11 12 12 14 14 12 10 11 20 25 25 26 26 25 23 21 19 18 15 16 13
16 27 45 56 43 33 33 38 46 46 38 33 34 39 43 42 39 36 32 30 27 24 19 15 13 10 8 8 9 10 10 11 10 11 10 9 8 8 7 7 7 7 6 7 7 9 9 7 3 -0 3 10 15 15 13 7 1 2 3 3 5 7 9 9 8 10 11 8 6 8 9 11 12 11 10 9 10 11 13 13 10 12 14 18 25 30 32 34 34 31 28 26 23 22 20 18 18
16 13 25 59 70 57 46 44 46 48 49 50 51 51 49 46 40 35 33 29 26 23 21 23 26 24 21 17 13 11 10 8 6 6 5 4 4 3 3 2 3 4 6 10 11 9 5 2 2 6 15 20 18 13 8 1 1 6 4 -0 1 6 8 8 9 11 11 10 7 8 11 11 11 12 11 10 12 13 13 12 11 14 19 25 30 34 38 40 40 38 32 29 27 26 24 21 19
5 3 6 37 72 79 75 74 70 66 65 60 57 56 51 46 41 37 35 34 35 35 37 39 39 37 33 31 29 26 24 20 16 13 10 8 5 2 2 1 3 7 11 12 8 3 1 4 9 14 17 16 11 8 5 1 1 3 1 1 1 3 6 6 9 10 9 11 11 12 15 16 15 14 11 12 14 15 17 17 16 18 23 30 34 37 41 43 45 45 40 35 35 34 33 30 25
5 4 1 14 49 80 91 89 84 76 69 63 60 57 51 45 43 42 43 47 52 49 47 44 37 33 30 30 32 31 31 29 26 22 18 14 9 5 3 3 7 10 10 6 3 4 7 11 11 9 8 7 7 7 6 5 5 4 3 5 4 3 5 7 8 9 14 20 22 22 26 29 27 24 20 17 18 19 20 22 21 22 24 28 33 36 40 44 46 48 48 44 43 45 45 42 39
10 10 8 7 28 70 95 90 82 78 70 63 60 57 49 43 45 51 58 61 60 56 53 46 37 31 27 24 25 23 24 24 22 19 16 12 9 8 6 6 7 6 5 7 11 13 11 9 6 4 4 5 6 7 9 10 11 11 10 11 11 11 10 11 11 14 23 29 29 31 35 38 35 35 33 29 36 41 34 30 29 28 28 30 32 35 39 42 44 46 49 50 50 52 54 51 49
12 12 15 19 29 58 89 93 84 78 70 63 59 57 47 40 47 59 67 66 63 62 57 48 37 28 25 24 21 19 19 18 16 13 11 10 10 9 7 6 6 8 13 16 15 11 7 7 6 6 5 5 7 9 11 14 15 16 17 20 20 19 17 15 16 22 35 40 41 45 49 51 45 39 40 41 49 55 44 36 38 37 35 34 35 37 40 42 44 46 46 48 51 53 57 58 54
12 11 12 22 36 59 87 92 79 68 64 61 57 57 46 37 44 52 58 61 59 55 46 37 28 23 24 21 16 15 15 13 11 10 9 9 8 7 7 8 11 14 14 12 9 7 8 9 9 9 6 6 8 10 14 17 18 19 22 26 24 22 18 18 19 23 41 57 56 58 66 67 55 44 48 51 48 48 43 37 41 42 38 34 34 36 39 43 46 47 46 44 44 45 50 54 57
13 11 10 12 21 40 62 66 58 53 56 55 52 58 51 36 37 36 36 40 39 35 28 24 22 20 18 13 11 12 10 8 7 7 7 7 8 9 11 12 12 10 9 9 8 9 10 10 10 9 7 7 10 15 20 22 23 25 28 28 25 24 20 19 20 22 43 65 54 46 57 60 51 46 53 55 44 44 47 41 38 38 35 32 32 34 36 39 43 46 48 48 45 42 42 45 49
18 13 10 11 11 13 21 28 34 36 38 36 36 51 53 42 40 36 30 28 23 19 17 16 16 16 14 10 7 6 6 7 8 8 8 10 11 12 12 10 9 8 9 10 11 12 11 11 11 8 8 12 19 24 23 24 26 28 30 31 31 31 30 28 29 31 48 69 61 41 40 47 49 52 55 54 47 48 52 47 41 38 35 33 31 30 32 33 35 39 43 47 49 48 45 44 44
22 19 13 11 12 12 10 11 16 18 18 18 23 43 53 45 40 34 26 20 15 11 11 10 11 13 11 6 3 3 7 10 10 11 10 11 11 11 10 9 9 9 10 11 12 12 11 11 10 10 15 24 32 30 27 27 28 32 36 39 41 39 39 41 38 41 52 70 76 60 47 45 44 54 62 61 57 55 53 49 44 42 38 36 34 32 32 33 32 33 36 38 42 46 48 48 49
21 22 20 14 8 10 12 11 11 12 13 15 22 35 38 31 24 17 13 12 10 7 5 4 6 8 6 3 4 6 9 11 11 11 10 9 9 9 9 9 10 9 10 12 13 12 12 12 12 16 24 35 40 34 32 32 32 41 50 53 49 43 47 50 44 50 57 58 63 59 52 48 45 54 66 66 59 53 52 52 48 46 43 41 39 39 38 36 34 33 32 34 34 37 41 44 49
23 21 22 20 13 7 7 9 9 10 11 11 17 22 19 15 12 11 12 10 7 3 -0 1 4 6 7 7 7 8 9 10 10 10 10 11 12 12 12 13 12 10 10 12 15 16 16 15 16 22 30 41 43 36 35 36 36 41 51 57 49 46 56 57 47 47 53 47 45 46 41 43 51 56 61 65 61 55 56 61 59 53 50 48 47 48 46 41 38 36 33 33 32 33 34 38 43
24 24 21 21 19 13 9 9 9 10 10 9 11 13 15 16 16 13 11 6 2 1 -0 1 5 9 10 12 12 13 14 14 14 16 19 22 26 28 28 25 17 11 12 16 21 24 24 24 25 30 36 42 41 38 39 40 39 35 39 47 39 36 44 44 39 41 52 53 48 52 45 38 49 53 54 66 70 64 64 70 71 64 59 57 56 57 58 50 43 39 35 34 34 33 33 34 38
21 24 23 21 21 19 15 14 15 16 15 14 12 13 18 25 27 15 2 1 -0 -0 1 1 8 13 16 18 19 20 21 22 23 24 26 30 33 35 37 36 26 18 18 23 27 28 30 32 34 37 38 40 39 40 43 41 37 31 31 35 27 25 28 28 33 38 51 51 38 47 51 46 59 60 56 68 76 74 76 78 76 73 69 66 63 66 67 58 49 44 38 37 38 37 36 35 37
19 21 24 23 21 21 20 17 18 19 19 18 16 18 23 36 51 32 3 3 3 -1 2 5 12 19 22 25 25 26 28 30 30 29 32 35 37 38 37 38 34 31 31 33 33 30 31 35 39 43 42 42 42 43 44 38 33 28 25 26 22 21 21 22 27 28 33 32 27 34 35 40 60 64 58 64 72 79 86 89 84 80 79 77 72 73 74 66 56 51 48 46 44 41 39 37 38
20 20 21 23 23 23 23 20 19 19 23 25 20 20 20 32 55 39 8 8 8 4 5 8 17 24 27 29 29 31 32 32 33 34 36 37 39 41 40 40 38 38 39 38 38 38 38 44 52 58 57 53 48 42 40 34 29 26 22 21 20 19 18 18 19 20 18 19 33 39 27 27 40 48 52 53 57 66 77 88 93 94 92 89 86 81 79 74 64 56 54 53 49 46 41 39 40
22 21 19 21 23 23 24 24 23 20 25 35 34 28 21 18 25 18 8 11 10 8 10 13 24 30 30 32 33 36 37 37 37 36 37 37 38 40 41 43 43 43 45 46 48 48 49 53 57 57 53 49 43 35 33 30 26 23 21 19 19 18 18 18 16 19 19 18 31 36 25 26 31 37 44 43 45 51 55 64 77 91 100 99 96 90 80 74 70 61 54 50 46 46 43 41 43
23 23 20 19 21 22 24 24 26 27 25 32 37 37 31 19 14 11 9 12 13 16 18 20 29 33 33 36 36 39 41 41 40 38 38 38 37 38 38 39 40 42 44 46 47 47 46 46 44 39 35 34 31 28 27 25 23 21 20 19 17 17 16 17 17 18 20 18 22 26 23 26 31 34 39 41 43 46 48 52 55 66 87 102 102 95 82 73 74 65 53 47 43 45 45 42 46
23 24 22 20 19 20 23 22 28 37 32 27 32 42 43 28 20 18 11 12 19 23 25 26 32 35 36 39 39 40 42 42 42 41 39 38 37 38 37 37 36 36 36 37 37 37 35 32 29 26 23 22 22 22 22 22 22 20 19 17 15 17 17 17 17 16 18 19 19 23 24 25 29 33 37 40 42 45 49 54 56 56 69 95 106 98 83 75 76 66 51 46 43 42 43 42 47
24 24 24 22 19 19 21 20 27 36 31 27 30 39 48 36 24 25 22 19 21 26 29 30 32 37 39 40 41 41 42 44 43 43 42 41 40 38 39 39 37 34 32 30 30 28 25 21 19 17 16 17 18 19 20 19 19 19 19 17 15 17 18 15 16 16 17 18 18 20 22 23 27 31 34 36 38 41 45 51 60 59 60 82 106 100 81 77 78 65 51 48 45 41 40 41 45
26 25 23 23 21 19 20 19 22 27 25 27 27 29 40 41 33 36 37 27 23 27 30 31 33 36 39 40 41 42 42 44 44 45 46 45 45 42 40 40 38 36 32 27 25 22 20 17 16 15 15 16 17 17 19 18 18 19 18 18 18 17 18 17 17 18 18 18 19 19 20 22 26 30 32 34 36 37 43 49 56 59 57 72 99 96 77 79 80 63 52 48 45 44 41 40 42
27 25 24 23 22 20 21 20 19 22 23 25 25 22 28 35 37 49 55 40 28 28 28 32 34 34 37 38 39 41 42 44 46 46 48 50 51 48 44 42 39 36 32 28 25 21 20 18 16 16 16 16 18 18 19 19 18 19 19 19 20 20 20 20 19 19 20 20 20 20 22 24 27 30 31 31 33 34 39 46 49 52 52 64 86 85 75 82 79 62 52 44 44 49 45 39 42
29 26 24 22 22 21 22 22 18 18 20 21 24 23 23 26 29 42 55 47 33 31 31 31 33 34 35 36 36 38 40 43 46 47 50 53 54 52 48 45 40 35 30 26 24 22 19 18 17 17 17 17 18 19 19 20 20 20 21 21 21 22 21 21 21 22 22 23 24 27 27 27 27 27 27 26 26 28 33 38 42 44 48 58 71 72 71 77 71 59 49 42 48 57 49 40 42
29 27 24 22 23 22 21 22 20 17 17 18 19 21 21 23 24 26 39 44 35 33 35 33 34 35 34 35 36 37 39 41 44 46 49 54 56 54 50 47 42 34 28 24 22 21 19 19 18 17 18 18 19 20 21 21 21 21 22 22 22 22 21 22 22 23 26 28 30 31 30 29 27 25 26 24 22 23 23 27 34 39 44 53 62 67 70 70 63 54 46 47 57 62 54 43 43
26 26 24 21 21 22 21 21 21 19 18 17 15 16 18 20 22 22 29 39 33 26 28 30 32 34 35 37 37 37 39 40 43 44 47 56 58 52 48 47 42 34 27 24 21 20 20 19 19 18 19 19 19 20 21 21 22 22 21 21 21 21 21 23 25 28 32 35 34 34 31 28 26 26 26 26 25 24 22 23 30 38 45 53 60 65 65 61 53 46 45 53 60 62 58 48 44
22 25 24 20 19 21 22 21 21 20 19 20 17 16 16 15 18 19 22 30 27 21 23 25 25 27 29 32 34 37 39 40 43 46 51 58 56 49 48 44 37 31 26 23 21 21 20 19 19 19 19 19 19 19 21 21 21 21 21 21 21 22 23 25 30 34 36 36 35 33 31 29 29 30 30 31 31 28 26 25 29 39 46 50 57 62 64 64 61 58 62 68 69 67 62 53 48
21 23 22 19 17 18 21 22 21 21 20 21 20 18 18 16 16 17 17 19 20 20 23 24 24 25 24 25 28 31 35 39 43 46 51 53 49 45 43 37 31 28 24 23 22 20 20 20 20 19 19 19 19 19 20 20 20 20 20 21 22 24 26 30 33 35 35 34 33 32 31 31 30 31 32 34 35 35 35 31 35 53 63 61 68 77 79 80 79 78 82 85 83 77 70 62 54
22 21 20 18 16 15 18 20 21 21 21 21 22 20 19 18 17 16 15 15 16 18 19 18 21 25 24 23 26 28 31 35 37 40 42 41 40 39 35 31 27 25 23 22 21 21 21 20 19 20 20 19 19 20 20 20 20 20 20 22 26 28 30 32 32 34 34 32 32 32 31 31 31 33 33 34 37 40 42 38 41 68 90 90 91 95 93 90 86 81 84 89 86 81 81 75 61
23 21 21 19 17 16 15 18 21 23 23 23 23 21 20 19 18 18 17 16 16 16 16 14 16 20 20 19 23 28 29 31 32 32 33 32 31 30 28 26 24 23 22 21 21 21 20 20 20 20 19 19 20 19 19 19 19 20 22 25 29 32 31 31 32 34 33 33 33 32 33 30 27 24 24 35 47 50 52 50 46 63 91 100 98 98 98 96 91 85 82 80 75 80 92 88 69
27 26 24 23 21 20 18 20 23 25 25 26 24 22 21 20 19 19 19 18 17 17 17 16 15 16 17 17 19 24 25 26 28 27 27 26 25 25 24 22 22 21 21 20 20 20 20 20 20 19 20 20 19 19 19 21 22 23 26 28 30 31 32 33 34 35 35 35 34 31 27 19 19 34 51 64 64 51 48 57 59 67 85 95 98 99 98 94 89 88 86 79 73 80 94 92 76
33 33 30 27 24 23 22 23 24 26 27 28 25 23 23 22 21 21 20 19 19 19 19 18 18 17 17 17 17 20 21 22 23 24 24 23 22 22 21 20 21 21 21 21 20 20 20 20 20 20 20 19 19 21 22 24 26 28 28 29 29 30 32 34 36 37 38 37 34 28 23 21 32 60 79 77 60 39 33 46 64 79 89 96 102 102 103 102 90 85 89 88 81 79 86 90 84
33 34 30 27 26 24 24 23 23 25 25 27 27 24 23 23 22 22 22 21 21 20 20 19 19 18 18 19 18 19 20 20 20 21 21 21 21 21 20 21 21 21 21 20 20 21 20 20 20 20 19 20 22 23 26 28 28 29 29 29 30 32 34 35 36 38 38 38 35 29 32 36 34 39 51 62 67 65 58 59 74 90 96 100 105 103 106 105 91 83 91 96 90 81 82 88 91
32 32 30 30 30 27 25 22 22 24 23 25 28 25 23 23 22 23 24 24 24 23 22 20 19 19 20 20 20 20 20 20 20 21 21 21 21 21 21 21 21 21 21 21 21 21 20 20 21 21 22 24 25 27 29 29 28 29 31 31 33 35 36 36 37 39 39 37 31 25 31 31 21 30 63 86 92 86 75 72 85 100 102 102 103 103 103 95 83 86 94 97 92 84 81 83 88
31 32 32 32 32 29 26 23 22 23 23 25 28 26 23 22 21 23 25 25 25 24 24 23 22 21 20 20 20 21 21 21 21 21 22 22 22 22 21 21 21 21 20 21 21 21 23 24 25 26 27 27 29 30 29 30 31 33 33 34 36 38 38 38 38 38 34 29 26 21 21 25 34 65 97 101 87 72 58 62 83 99 102 99 95 96 99 93 87 94 99 98 95 91 88 87 87
32 31 30 31 30 27 26 25 24 24 24 25 27 27 25 24 22 23 25 24 25 25 24 25 24 24 23 22 21 21 20 21 21 21 21 22 21 21 20 21 21 21 22 23 25 26 28 30 30 30 30 29 30 30 31 34 34 34 37 39 39 38 38 38 36 35 26 21 31 36 44 63 75 83 89 84 78 74 67 72 88 97 99 96 93 94 99 99 98 101 102 100 99 98 98 97 96
33 31 29 29 28 26 26 27 26 26 25 25 27 27 28 28 25 22 23 23 23 25 25 24 25 26 27 26 24 24 24 23 23 23 23 23 23 23 23 23 24 25 28 29 30 32 32 32 32 31 31 31 32 32 35 36 36 39 42 41 41 40 39 36 32 27 13 7 21 38 61 83 75 63 78 92 93 93 94 94 94 97 101 99 97 99 100 101 101 101 102 101 101 101 101 100 100
34 30 30 30 28 27 27 26 27 26 25 25 25 26 29 29 27 23 22 22 22 23 24 25 25 25 28 27 26 26 27 26 27 27 28 28 28 28 27 27 28 29 31 31 32 32 31 32 32 31 32 32 33 35 37 39 41 43 43 44 44 40 36 32 24 15 4 -0 15 33 45 47 40 54 90 106 101 101 103 100 98 100 102 100 100 101 99 100 101 100 100 100 100 101 101 100 100
37 32 32 31 30 31 28 25 28 28 26 27 26 27 29 29 28 26 25 24 23 22 24 25 26 25 26 25 25 26 26 26 27 28 28 29 29 30 29 28 28 28 29 29 30 30 30 32 31 32 33 33 35 37 38 42 44 44 48 48 41 35 32 26 12 4 -0 -3 7 16 11 8 25 63 99 105 100 104 102 98 102 99 89 91 101 102 99 101 102 101 101 99 99 101 100 101 102
Wind_Speed
28 29 29 30 29 29 29 29 31 31 30 31 31 32 32 32 32 31 30 29 29 28 26 24 23 23 24 24 24 24 24 24 25 25 25 27 28 27 26 23 20 19 18 16 15 15 15 16 18 20 22 23 22 23 22 22 25 28 28 30 33 36 39 41 41 40 40 42 46 49 50 50 49 49 46 41 37 33 30 27 25 24 25 24 21 22 26 25 30 39 40 36 32 31 30 28 22
27 29 30 30 28 29 29 29 31 31 30 30 29 29 30 30 30 29 28 26 26 25 25 24 24 23 23 24 24 25 25 26 26 26 27 29 29 28 25 21 19 18 17 15 14 14 14 15 16 17 20 22 24 24 23 25 28 30 30 31 32 35 37 38 38 39 41 45 47 48 48 46 46 43 40 36 33 30 27 25 24 24 23 21 19 21 24 25 27 34 38 35 34 32 29 28 24
25 27 29 30 29 29 30 29 31 30 29 29 28 28 28 29 29 28 27 26 25 25 25 24 24 24 24 24 24 25 26 26 27 28 29 29 29 27 22 18 17 16 14 14 15 15 15 16 17 18 20 22 24 25 25 27 30 30 29 29 31 32 33 35 37 40 42 45 45 45 44 42 40 37 34 32 30 28 26 24 23 21 20 18 17 21 23 24 23 28 35 35 34 36 33 28 24
24 26 27 28 29 28 28 29 30 29 28 28 28 29 29 29 29 29 27 26 26 25 25 24 24 24 23 23 24 24 25 26 27 28 28 28 27 24 20 16 16 16 14 12 13 14 14 15 17 19 20 21 23 25 26 28 29 29 28 30 32 33 34 36 39 40 42 44 43 41 40 38 35 32 29 28 27 26 24 22 20 17 17 16 16 21 22 22 20 20 30 34 32 33 35 30 24
24 25 26 27 29 29 29 29 30 29 28 28 28 29 29 29 29 28 27 26 26 26 25 24 23 23 22 22 23 23 24 25 25 25 25 24 23 20 17 15 14 13 12 12 13 14 15 17 19 20 20 21 23 24 25 27 29 30 31 32 33 34 36 37 38 40 42 43 42 40 37 34 30 27 26 26 26 24 22 19 15 13 15 16 17 21 20 20 20 17 22 30 31 29 31 30 25
24 24 24 26 28 29 29 29 30 30 28 28 29 29 29 28 28 27 26 26 26 25 24 23 22 22 21 21 21 21 21 21 21 21 20 19 18 17 14 12 12 12 11 13 15 17 18 20 21 21 21 22 23 25 27 28 29 31 32 31 32 33 34 36 37 40 42 42 39 37 33 29 25 23 24 25 24 22 20 15 11 11 14 16 17 18 17 18 21 20 21 25 28 28 29 31 29
23 23 23 24 26 28 29 28 28 29 28 27 27 27 27 27 27 26 25 25 24 23 22 20 20 19 18 17 17 17 17 17 17 17 16 15 15 14 12 12 12 12 13 15 17 19 21 21 21 21 22 23 25 27 28 29 30 31 30 29 30 31 32 35 37 39 39 37 35 30 26 23 22 23 24 24 23 19 16 11 10 13 14 16 16 15 16 17 20 21 22 22 25 27 26 28 30
22 23 23 22 23 26 27 27 26 27 26 26 26 26 26 25 25 24 23 22 21 20 18 17 17 15 14 12 13 14 14 14 13 13 13 13 13 13 13 13 13 13 15 17 19 20 21 20 21 22 23 24 25 27 27 28 29 29 28 28 29 30 33 36 37 35 33 31 28 24 21 22 23 24 24 23 21 16 13 9 12 15 15 15 14 15 16 16 19 22 21 21 23 26 26 23 26
21 23 23 22 23 24 26 25 25 26 26 25 25 25 24 23 22 21 20 19 18 16 15 14 13 12 11 10 10 11 11 11 11 11 12 12 12 12 13 13 14 14 15 17 18 19 20 20 22 24 25 24 24 25 26 27 27 27 28 29 30 32 34 35 32 28 26 25 23 21 21 23 24 24 23 21 18 14 11 10 13 16 15 14 12 14 17 17 19 21 20 18 21 24 25 22 21
21 23 24 23 23 24 25 24 24 25 25 25 24 23 22 20 19 18 17 15 14 13 13 12 11 10 10 9 9 10 11 12 12 11 11 12 12 13 13 14 15 15 16 17 18 19 21 23 24 24 23 23 24 24 25 25 24 26 28 29 30 32 31 28 25 23 23 22 22 22 23 23 23 22 19 18 17 13 10 10 12 15 14 12 9 12 16 16 16 19 19 15 19 22 21 21 18
20 22 23 23 23 24 24 24 24 24 24 24 23 21 20 18 17 16 16 14 13 12 12 11 11 10 10 9 10 11 13 13 13 12 12 13 13 14 14 15 16 17 18 19 21 22 24 25 25 24 23 23 24 24 24 24 24 27 28 28 28 26 23 21 21 22 22 22 21 22 22 22 20 19 18 18 17 13 10 9 11 12 10 7 8 11 12 13 14 16 18 15 16 21 20 20 18
19 20 22 22 23 24 25 25 25 24 22 22 21 20 19 17 16 15 15 14 13 13 13 12 11 11 11 11 12 13 14 15 15 15 15 14 15 15 15 16 17 18 19 20 22 23 23 24 25 25 25 24 24 23 24 25 25 27 25 22 20 19 18 19 21 20 21 21 21 21 21 20 18 17 18 19 18 14 10 9 9 8 6 6 8 11 11 11 10 9 14 17 17 20 19 19 19
17 18 20 20 22 23 24 25 25 23 22 20 19 19 18 17 17 16 15 15 14 14 14 13 13 13 13 13 14 15 16 16 16 16 16 16 16 16 16 17 18 18 19 20 21 22 22 23 23 24 24 23 22 23 24 25 22 20 17 16 16 16 17 20 20 19 19 19 20 20 19 17 16 17 19 20 18 15 11 9 6 5 5 6 7 9 11 11 9 6 8 17 20 19 19 20 20
14 16 17 18 20 22 23 24 24 23 21 19 18 17 17 16 15 15 14 13 13 13 14 15 15 16 16 16 16 17 16 16 17 17 17 17 16 16 16 17 17 18 19 19 20 20 21 21 21 22 22 21 21 20 20 18 15 13 15 16 15 14 16 19 18 17 18 19 19 18 17 17 17 18 19 19 18 16 13 10 7 4 5 6 7 9 13 13 11 9 11 16 20 20 19 20 21
13 14 14 15 17 19 20 21 22 21 19 18 16 15 14 13 13 12 12 12 13 15 16 17 18 18 18 19 19 18 17 17 17 17 17 17 16 16 16 16 17 17 17 18 18 19 19 19 19 19 19 18 17 14 13 12 12 13 15 15 13 13 14 16 16 16 17 17 16 16 17 18 20 20 20 19 18 18 16 12 9 7 7 8 8 10 14 14 11 15 20 22 23 23 22 23 23
11 13 13 14 15 16 16 17 18 18 17 15 14 13 12 12 12 12 13 14 16 17 18 19 20 20 20 20 19 18 17 16 16 16 16 16 16 16 16 16 16 16 16 16 15 15 15 14 14 14 13 12 10 8 9 10 11 13 13 13 12 12 13 14 15 16 16 16 15 16 19 21 22 22 21 21 20 20 18 15 13 11 11 11 11 11 14 16 15 20 26 27 27 27 26 25 23
11 13 14 15 15 15 15 16 17 16 16 15 14 13 13 13 13 13 15 16 17 18 19 19 20 19 19 18 17 16 15 14 14 14 14 14 14 14 14 14 13 13 11 10 10 9 9 9 9 8 8 8 7 8 9 8 9 11 11 11 12 12 12 14 15 15 15 17 18 18 21 22 23 24 24 25 25 23 21 19 17 14 14 14 14 13 15 18 20 23 25 26 27 27 27 25 23
13 14 15 16 16 17 17 17 17 17 16 15 14 13 13 13 14 15 16 16 16 16 17 17 17 16 15 13 12 12 11 11 11 11 12 11 11 11 10 9 8 7 6 5 5 5 6 6 6 6 6 7 7 8 8 7 7 9 10 11 12 13 13 14 14 16 17 20 21 20 22 22 23 24 25 27 27 27 26 24 22 19 17 17 16 16 17 19 20 21 21 22 22 22 22 22 21
14 15 16 16 16 17 18 18 17 17 16 16 14 13 13 13 14 14 14 13 13 13 14 14 12 10 9 7 7 7 7 7 7 7 7 7 6 5 5 4 3 2 2 2 3 4 5 5 6 6 6 5 5 5 6 6 6 6 9 11 13 14 15 16 17 19 20 21 22 21 22 22 22 23 24 25 26 26 27 27 27 26 24 23 22 21 20 19 19 19 20 19 19 18 17 17 17
13 16 17 16 15 16 17 17 16 16 16 15 14 13 13 13 12 12 10 9 9 8 8 7 5 4 3 3 3 3 3 2 3 3 3 3 3 2 2 2 1 1 1 2 3 4 5 6 6 5 5 4 4 4 5 7 8 9 11 14 15 16 18 19 20 21 22 23 23 23 23 23 23 25 25 26 26 26 27 28 28 29 28 27 27 26 24 24 24 24 23 22 21 20 19 17 15
10 15 17 15 14 14 14 14 14 14 14 14 14 13 12 11 10 8 6 4 4 5 4 3 3 2 2 3 3 2 2 2 1 2 2 2 3 2 2 1 0 1 2 3 4 4 4 4 4 4 5 5 7 8 10 11 12 13 15 17 18 19 20 20 21 22 23 24 24 24 25 25 25 25 26 27 27 27 27 28 28 28 27 26 27 27 28 28 29 28 28 27 27 26 23 20 17
5 11 15 15 14 13 12 11 12 12 13 13 12 11 10 8 7 5 3 3 4 6 5 5 4 2 3 3 3 2 2 1 1 1 1 1 1 1 0 1 2 3 3 3 2 2 2 3 5 8 10 12 14 15 16 17 17 16 17 19 20 20 20 20 21 21 21 22 23 23 23 23 23 23 24 25 26 26 25 25 25 26 25 26 28 30 30 31 31 30 30 31 32 31 28 24 19
2 6 11 14 14 13 11 10 12 12 12 12 11 10 9 8 5 4 5 5 7 7 6 4 2 2 3 3 3 3 3 3 2 1 0 0 0 1 1 2 3 3 2 1 1 3 6 9 12 15 17 18 19 20 20 20 20 19 19 19 19 19 19 19 19 19 19 20 21 21 21 21 21 21 22 23 24 24 24 23 23 24 25 26 27 29 31 32 32 31 29 30 33 36 37 35 30
8 1 7 12 14 14 12 11 12 12 13 14 12 11 10 8 7 8 8 9 8 6 4 2 2 2 3 3 4 4 4 4 3 2 1 1 1 0 1 2 2 3 3 5 7 10 13 16 18 19 20 21 21 21 21 21 21 20 19 19 18 18 18 17 18 19 20 19 19 20 20 20 21 21 22 22 24 25 25 24 23 24 24 25 25 26 29 32 33 32 29 28 29 33 38 42 43
13 6 2 7 11 12 12 12 13 13 15 15 14 12 11 11 10 11 11 10 8 5 3 3 3 4 4 4 4 4 3 3 3 2 2 3 2 2 2 3 4 6 8 11 14 16 18 19 20 20 21 21 21 21 21 21 20 20 19 18 17 16 16 16 18 21 21 21 20 20 21 22 22 21 21 22 24 25 26 25 24 25 25 25 24 25 27 30 32 32 32 30 28 29 32 36 41
17 12 5 3 7 10 11 12 13 14 15 16 15 14 12 12 11 11 11 10 7 5 4 5 5 5 6 6 6 4 2 3 4 5 5 5 5 5 6 7 9 12 15 17 18 18 18 19 20 20 20 20 20 20 20 19 19 18 18 18 17 16 15 15 19 21 21 21 20 21 21 21 20 20 19 20 23 25 26 26 25 25 26 26 26 26 26 27 28 30 31 32 32 31 31 32 35
19 15 10 4 4 7 10 12 13 14 15 16 15 14 13 11 10 9 9 8 7 6 5 5 6 6 6 7 6 4 4 6 7 8 8 8 9 10 11 13 15 17 18 18 17 17 17 18 19 19 18 18 19 19 19 18 17 17 17 18 17 17 17 17 18 19 20 20 20 19 17 16 17 17 16 17 22 25 26 27 25 24 26 27 27 27 27 27 26 26 27 30 32 33 32 32 32
19 17 14 8 3 5 9 11 13 14 15 16 16 15 13 11 9 8 7 7 6 5 5 6 7 6 6 5 4 5 7 10 11 12 12 12 13 14 15 16 17 17 16 16 15 15 16 17 17 17 17 17 18 18 18 18 18 17 17 17 17 18 18 16 15 15 16 16 18 18 16 14 15 15 14 16 20 22 24 26 25 24 25 26 27 28 28 27 27 25 25 26 28 30 31 31 31
17 17 15 12 7 2 7 11 13 14 16 17 17 16 15 13 10 9 7 6 4 4 4 5 5 4 2 3 6 9 12 14 14 15 15 15 16 17 17 17 16 15 14 14 14 14 15 15 16 17 17 17 17 17 18 18 18 17 17 16 16 16 15 14 13 13 14 13 13 15 15 15 15 14 13 15 18 20 22 23 24 24 26 27 28 29 29 29 28 28 27 27 28 29 31 31 31
15 15 16 14 11 7 4 7 11 13 15 16 16 15 14 12 10 9 7 5 4 3 2 3 2 3 5 8 11 13 15 16 17 17 18 19 18 17 16 14 13 13 13 13 13 13 14 14 16 17 18 17 16 16 16 16 16 16 16 16 16 16 15 14 13 13 13 11 10 11 13 14 15 14 14 14 16 18 20 21 22 24 26 27 29 31 31 31 31 30 30 30 31 31 33 33 33
10 13 14 14 12 9 8 7 9 11 12 13 12 12 12 10 9 7 6 5 5 4 4 4 5 8 10 13 16 17 18 18 19 19 19 18 17 15 14 13 13 13 13 13 14 14 14 15 16 17 16 14 14 14 14 14 14 14 14 14 15 16 16 15 14 13 12 11 9 8 10 11 12 13 14 15 16 18 18 19 21 23 25 27 30 32 33 34 33 32 31 32 33 34 35 35 35
6 8 11 12 10 8 9 10 11 11 11 11 11 10 10 10 10 10 9 9 8 8 7 8 10 14 17 18 19 19 18 18 17 17 17 16 15 15 14 13 13 13 13 14 15 15 15 15 15 14 12 11 12 12 12 12 12 12 12 12 14 15 16 16 16 14 13 12 11 10 10 10 11 12 14 17 18 18 18 17 19 21 23 26 29 32 35 37 36 34 33 33 35 36 37 37 37
4 3 5 8 8 7 8 10 13 14 13 13 13 13 13 14 14 13 12 11 12 12 13 15 17 18 19 19 19 18 18 18 18 17 17 16 15 14 13 13 13 13 13 14 14 14 14 13 12 11 9 9 9 10 10 10 10 11 11 11 12 14 15 16 17 17 15 14 14 13 12 12 13 14 16 18 19 19 18 17 18 20 22 24 27 31 36 39 39 36 35 36 38 39 39 39 39
2 2 0 4 7 6 6 8 11 13 14 15 15 15 15 14 14 13 13 15 17 18 20 21 20 18 17 17 17 17 17 17 18 18 18 17 15 14 13 13 13 13 13 13 12 12 12 11 10 9 8 8 8 7 8 9 10 11 11 11 12 13 15 16 17 19 17 17 18 16 15 15 15 16 18 18 19 19 19 18 19 21 23 23 25 29 34 38 40 38 38 39 41 42 42 42 41
3 3 4 4 5 6 5 5 7 9 11 13 15 16 15 14 12 12 16 19 19 20 20 19 18 17 16 16 17 18 18 17 17 17 16 15 15 14 14 13 13 13 12 11 11 10 10 9 9 8 6 5 5 6 7 9 10 11 12 12 13 14 16 17 18 19 20 21 21 20 19 19 18 18 20 20 20 20 20 20 21 22 23 24 25 28 31 36 38 38 40 42 43 44 45 45 43
7 6 5 6 6 6 6 4 5 6 7 9 11 14 15 15 13 13 16 18 18 18 18 17 17 18 18 19 19 19 18 17 16 15 14 13 13 13 13 13 12 12 11 10 9 8 8 7 5 5 4 4 4 6 7 9 11 13 13 14 14 15 17 19 20 21 22 23 22 22 23 23 21 21 21 22 23 22 21 22 22 23 23 24 25 27 29 33 35 37 41 44 45 46 46 46 45
11 10 8 7 8 8 8 6 5 5 5 5 7 10 13 15 15 15 16 17 17 17 17 18 19 20 20 19 18 16 15 14 13 13 12 11 11 11 11 11 11 10 9 8 7 6 5 4 3 3 3 3 4 6 8 10 12 13 15 16 17 17 18 20 21 22 23 24 23 23 25 25 23 22 22 23 25 25 26 26 25 24 23 24 25 27 29 31 34 37 42 44 46 46 46 45 45
15 13 12 10 9 10 10 9 7 6 6 5 5 6 9 12 14 15 16 17 17 17 18 19 19 18 16 14 13 12 12 11 10 10 9 9 8 8 8 8 8 8 7 5 4 4 3 3 3 3 3 4 5 7 9 10 12 14 16 17 18 20 20 22 23 23 24 26 25 26 27 27 26 25 24 25 27 29 30 30 29 27 25 24 23 26 29 31 33 36 40 43 45 45 43 44 45
19 17 16 14 12 11 12 12 10 8 8 8 7 7 8 10 12 14 15 17 17 17 18 18 18 16 13 11 9 9 8 8 8 7 7 6 6 5 5 5 5 5 5 5 4 3 3 3 3 3 3 5 6 8 9 11 12 14 16 18 20 21 22 23 25 26 26 27 28 28 29 29 29 28 28 29 30 32 33 33 32 30 27 24 23 25 28 30 32 34 38 42 45 44 42 44 46
24 22 20 18 15 14 13 14 12 11 11 10 9 9 10 11 12 13 14 16 17 17 17 18 17 15 13 11 8 7 6 5 4 4 4 4 4 3 3 2 3 3 4 4 3 3 2 1 1 2 4 6 7 9 10 12 14 16 18 19 21 23 24 25 27 27 28 28 29 29 30 30 30 30 30 31 32 33 34 34 33 30 27 23 22 25 28 29 30 33 37 42 44 42 42 45 45
29 26 24 22 19 18 15 14 15 14 14 13 12 11 11 13 13 13 14 15 17 18 18 18 17 16 15 13 11 9 7 5 4 2 1 1 1 2 1 0 1 2 1 1 1 1 1 1 2 3 5 7 9 10 12 14 16 17 20 21 23 24 26 27 27 28 28 28 29 29 30 31 31 31 31 31 32 33 34 33 32 30 26 21 21 26 28 28 29 32 37 43 44 43 44 45 43
34 30 28 26 24 21 17 17 17 17 17 16 15 13 13 13 14 15 15 15 17 18 19 19 18 18 17 16 14 12 10 9 7 6 5 4 3 3 3 2 2 2 2 2 2 3 3 4 5 6 7 9 10 12 14 16 17 19 21 23 24 25 26 27 28 28 28 28 28 29 29 30 30 30 30 31 32 32 32 32 30 28 25 20 21 25 27 27 29 32 38 44 46 45 45 44 41
37 35 33 30 27 24 21 21 20 19 18 17 16 16 15 15 15 16 17 16 17 19 20 20 20 19 19 19 17 16 14 12 11 10 9 8 7 6 5 5 4 4 4 4 4 5 6 7 8 9 10 11 12 14 16 18 19 21 22 23 24 25 26 27 28 28 28 28 28 28 28 29 29 29 30 31 31 32 32 31 30 27 24 20 20 24 26 26 28 33 40 46 48 47 45 43 38
41 41 39 34 30 28 26 25 23 21 19 17 17 18 17 17 17 16 17 16 18 21 21 21 21 21 21 20 19 18 17 16 15 14 13 12 10 9 8 7 6 6 5 6 6 7 8 9 11 12 12 13 14 15 18 20 21 22 23 24 25 25 26 27 28 28 28 29 29 28 28 28 28 29 30 30 31 32 33 32 30 28 26 22 22 24 25 27 31 37 43 46 48 48 44 41 37
45 45 42 37 34 31 29 28 27 24 19 17 19 19 18 19 18 18 18 18 21 22 22 21 21 21 22 22 21 20 19 19 18 17 16 14 13 11 10 9 9 7 7 7 8 9 10 12 13 14 15 16 17 18 19 21 23 24 25 26 26 26 27 28 28 29 29 29 29 28 28 28 29 30 31 31 31 32 33 32 31 30 28 26 25 26 29 33 38 42 45 45 46 47 43 40 36
48 47 46 41 37 34 32 30 29 26 21 19 22 22 21 20 19 19 21 22 23 22 20 20 20 21 21 22 22 22 22 21 20 19 18 16 14 13 12 11 10 9 9 10 11 12 13 15 16 17 18 19 20 21 22 24 25 26 26 26 27 27 28 29 29 30 30 30 30 29 29 30 31 32 34 34 34 34 33 31 31 31 29 28 29 31 35 39 43 45 46 45 45 47 44 40 36
50 49 48 43 38 36 34 32 31 29 24 22 25 26 24 22 22 23 24 24 23 21 20 21 20 21 21 21 21 22 22 21 21 20 19 17 16 14 13 13 12 11 12 13 14 15 17 18 19 20 21 22 24 25 26 27 27 27 27 27 28 29 29 30 31 31 31 31 31 31 31 32 34 35 37 38 37 36 34 32 31 30 28 28 29 34 38 42 44 45 46 45 46 47 44 39 35
53 51 48 44 39 37 35 34 33 29 25 25 28 29 27 27 27 25 25 24 22 22 23 22 21 21 21 21 20 20 20 20 20 20 19 18 16 15 14 14 13 13 14 16 17 18 20 22 23 24 25 26 27 28 29 29 29 29 29 29 30 31 31 31 32 32 32 32 32 33 34 35 37 38 40 41 40 39 37 34 32 30 28 28 31 37 42 45 46 46 46 45 45 46 44 39 35
56 53 48 44 41 38 36 34 33 31 28 30 33 32 30 32 31 26 26 27 24 24 25 24 22 23 23 22 21 20 20 20 19 19 18 18 17 16 16 16 15 16 17 18 20 21 24 25 26 27 28 29 30 30 31 31 31 31 31 31 32 32 32 32 33 33 33 33 33 35 36 38 39 41 41 41 41 40 38 36 34 33 32 33 36 41 44 47 48 49 48 46 45 45 44 39 35
59 57 51 46 44 41 38 36 35 34 32 35 39 34 31 37 34 27 28 30 26 26 27 26 24 24 24 23 22 22 22 21 20 19 19 19 18 18 18 18 17 18 19 21 23 24 26 28 29 30 31 31 32 32 32 32 32 32 32 33 33 33 33 33 34 34 34 34 35 36 38 40 40 41 40 38 39 39 39 37 36 35 36 38 41 43 46 50 52 52 50 45 43 43 42 38 34
62 61 56 51 48 44 42 41 40 39 38 40 43 35 33 41 38 29 31 31 28 29 30 29 28 27 26 24 24 24 24 23 22 21 21 21 21 21 21 21 20 21 22 24 26 27 28 30 31 32 33 33 33 33 33 33 33 33 33 33 34 34 34 34 34 35 35 35 36 38 39 39 39 39 38 38 39 40 40 39 39 39 39 41 41 43 50 55 56 56 51 45 42 42 39 36 35
65 66 62 54 49 47 47 47 44 44 44 43 43 37 37 45 40 32 32 32 31 33 33 33 32 30 27 26 27 27 26 26 24 24 24 24 24 25 24 24 24 25 26 27 28 29 30 32 33 34 34 34 34 34 34 34 33 33 33 34 34 34 34 35 35 36 36 37 37 39 39 38 38 38 38 39 40 39 39 41 42 42 42 41 43 47 55 59 58 57 52 47 44 42 39 38 40
67 68 63 56 53 52 51 49 47 47 46 44 45 41 42 47 41 34 35 35 35 37 36 36 34 31 31 30 30 29 29 28 27 27 27 27 28 28 27 27 28 28 29 30 30 31 32 34 34 35 35 35 35 35 35 35 34 34 33 34 34 35 35 36 36 37 38 39 40 40 40 39 39 38 36 37 37 36 38 41 44 46 45 45 49 54 58 59 59 57 54 50 48 45 42 43 45
70 69 66 62 60 57 53 52 50 49 46 44 47 45 45 47 42 37 39 39 40 40 39 38 36 34 34 33 32 32 31 30 30 30 29 30 31 31 30 30 31 31 32 32 33 33 34 35 35 35 36 36 36 36 36 36 35 34 34 34 35 35 36 37 38 39 40 42 42 42 41 39 37 35 33 34 35 36 38 41 45 47 48 51 55 57 58 58 58 57 55 53 50 47 46 47 49
73 72 70 67 65 60 56 55 53 51 47 45 47 47 48 49 44 40 42 43 43 43 41 40 39 38 37 36 34 34 33 33 32 32 32 32 34 34 33 33 33 33 33 34 34 35 35 36 36 36 37 38 38 38 38 37 37 36 35 35 35 36 38 39 39 40 41 42 42 42 40 37 35 35 35 35 36 38 39 41 43 45 48 52 56 56 56 57 57 56 55 53 50 48 48 50 52
76 75 73 71 68 64 61 59 56 54 50 48 49 49 49 52 49 44 45 46 46 45 44 42 41 40 39 39 38 36 36 35 35 35 34 35 36 36 36 35 34 34 34 35 36 36 36 37 37 38 39 39 40 40 39 39 38 37 36 36 36 38 39 40 40 41 41 41 41 41 39 37 40 41 39 38 39 41 42 43 44 46 49 52 54 54 55 56 56 56 54 51 49 49 50 52 52
80 77 75 74 71 67 66 62 58 56 53 49 49 49 50 55 54 47 46 48 47 47 46 44 43 42 41 41 40 39 39 38 38 38 37 37 38 38 38 37 36 36 36 36 36 37 37 38 39 40 40 41 41 41 40 40 39 38 38 36 37 39 40 41 41 40 40 39 38 37 37 40 46 44 40 40 41 42 43 45 46 48 51 53 54 53 53 54 55 54 52 50 49 50 51 52 54
85 81 78 78 74 72 72 66 59 58 55 50 49 49 52 57 57 51 49 49 48 48 47 46 45 44 43 43 42 42 42 41 41 41 39 38 38 39 39 38 37 37 37 37 38 38 39 40 40 41 42 42 42 42 42 41 40 39 39 38 39 39 38 39 39 40 40 37 34 35 39 45 48 44 42 43 42 41 42 45 46 48 51 53 53 52 52 54 56 54 51 49 48 50 52 55 58
Wind_Direction
207 210 212 213 213 214 217 221 223 224 227 228 227 228 231 234 237 241 244 248 253 259 263 265 265 262 261 261 264 266 268 271 273 275 274 274 277 281 282 278 273 266 258 251 249 249 252 262 270 277 285 291 291 290 295 296 292 294 293 290 291 291 290 290 297 304 307 309 312 315 318 320 319 321 324 329 334 337 339 342 348 352 356 2 14 15 11 21 28 27 24 23 22 24 39 46 44
207 210 212 215 215 215 216 221 225 227 230 231 231 232 234 235 238 241 245 250 255 259 263 265 266 264 263 264 266 268 270 273 274 274 273 273 276 280 280 276 273 264 255 252 254 255 258 266 273 283 295 296 294 292 296 299 299 298 294 291 291 292 294 296 301 305 307 310 313 317 319 319 319 321 326 331 334 335 339 344 348 350 359 6 18 18 13 22 30 31 28 29 30 28 38 49 51
207 210 213 216 217 218 219 222 227 230 232 233 234 235 237 238 239 243 248 253 256 259 262 264 264 264 264 265 268 270 272 274 274 274 273 274 275 278 275 267 264 262 257 255 258 261 265 272 273 281 294 293 289 292 296 299 299 296 293 293 295 299 302 303 305 306 309 311 314 317 318 319 320 323 328 331 332 334 339 344 347 353 5 12 23 22 19 29 32 34 34 33 34 32 35 41 49
204 208 211 214 218 221 223 225 229 233 235 235 237 238 239 240 243 247 251 256 259 261 262 262 263 263 265 267 269 271 273 273 273 274 274 274 274 275 270 258 253 258 260 256 257 260 267 278 279 285 292 288 285 289 293 297 299 299 297 297 299 303 306 306 306 307 310 312 315 317 320 322 322 325 329 332 333 337 342 346 351 2 15 19 27 26 30 39 37 36 38 38 39 36 34 37 46
203 205 207 210 216 219 223 227 229 234 236 236 238 239 240 242 244 248 253 257 261 263 263 263 264 265 267 268 270 271 272 272 273 274 274 274 273 271 266 258 253 253 257 256 257 260 269 282 287 290 290 285 284 285 290 297 299 300 302 303 305 306 305 304 306 310 314 316 317 319 322 324 325 329 333 336 338 341 346 350 360 13 23 29 30 31 42 48 42 39 38 38 39 39 39 40 45
203 205 205 207 213 217 222 227 229 232 235 236 238 239 241 243 247 250 254 258 261 263 263 264 265 267 269 270 272 271 272 274 275 275 274 272 270 268 263 259 252 245 244 249 256 264 273 282 288 290 286 283 282 283 290 295 296 300 304 305 305 305 304 305 310 314 317 317 318 320 322 325 330 336 338 340 342 346 351 354 2 11 26 39 34 37 50 48 44 38 33 33 31 34 39 42 44
203 205 204 204 210 215 219 224 226 229 232 234 236 239 242 246 249 252 255 258 260 261 262 264 265 266 267 270 273 274 275 277 277 275 273 270 266 263 258 253 248 244 243 249 259 268 276 282 286 286 285 284 283 286 291 295 297 300 303 304 305 304 306 310 314 316 316 317 318 321 323 329 337 339 341 344 345 349 353 355 358 8 32 40 33 38 45 43 38 25 21 26 22 23 30 41 45
204 206 204 203 209 212 216 221 221 225 229 230 232 236 241 244 248 251 253 256 257 258 258 259 259 260 262 267 273 274 276 278 277 275 272 269 265 262 258 256 254 253 255 260 266 271 277 280 283 283 284 286 288 290 293 295 296 298 300 303 306 306 310 314 315 318 319 320 323 325 327 333 339 339 342 346 346 350 353 357 2 17 36 32 28 36 35 34 26 13 11 22 21 16 18 30 43
206 209 206 204 210 210 213 218 218 221 224 226 228 231 235 239 244 247 250 252 252 251 250 250 252 254 258 260 262 266 272 275 276 276 275 272 268 265 262 262 261 261 264 266 270 274 277 279 280 282 285 290 294 295 294 295 294 297 301 304 308 309 312 316 320 324 325 325 326 328 332 337 339 339 344 349 353 358 0 2 12 26 31 22 30 33 26 24 17 12 11 18 23 18 13 17 31
207 212 209 207 210 209 211 215 217 219 221 223 225 227 232 237 241 243 245 245 243 241 240 243 245 247 250 248 253 264 272 276 279 279 278 276 272 269 266 264 264 263 264 266 271 274 277 280 282 287 291 295 298 297 297 295 295 300 304 307 310 313 316 321 325 329 327 326 328 332 337 339 340 342 350 360 4 9 11 9 21 30 25 24 30 23 23 22 15 15 17 17 17 15 12 13 15
208 213 214 213 212 211 213 214 217 219 221 224 226 228 231 234 238 239 239 237 235 234 234 237 239 241 246 253 266 278 282 284 284 282 279 276 274 272 269 269 268 267 267 271 275 277 281 284 288 291 292 295 296 296 298 296 298 304 308 310 314 317 320 326 328 328 328 329 333 337 341 342 345 353 3 10 13 16 18 18 32 35 26 30 19 14 24 23 16 14 22 23 10 6 7 10 11
209 214 217 216 214 214 216 215 216 218 220 224 227 228 229 230 231 232 231 230 230 230 232 237 242 248 256 270 284 289 289 288 287 284 281 279 276 274 273 273 274 274 275 277 280 283 286 288 290 290 290 291 293 296 298 300 303 307 311 316 322 322 321 329 332 331 334 338 341 343 345 346 352 5 14 18 21 22 22 28 38 36 21 16 9 19 27 16 7 2 23 30 14 3 358 2 11
208 215 219 218 217 216 217 217 216 217 218 221 224 229 231 232 231 228 226 227 230 235 241 248 257 263 270 280 288 289 287 285 284 283 282 281 280 278 277 276 275 275 276 279 282 284 285 286 288 289 290 290 293 298 300 303 307 310 321 333 335 328 324 333 339 340 344 347 347 347 349 353 4 16 19 20 24 24 27 35 37 23 359 356 357 9 14 1 345 333 21 28 19 8 358 357 2
205 213 216 217 218 217 217 217 217 218 218 219 223 230 235 237 236 235 234 236 241 249 257 262 269 274 278 282 286 285 282 279 279 279 280 281 281 280 277 275 273 273 275 278 280 282 284 285 285 287 289 290 294 300 303 310 320 328 340 341 340 336 330 337 345 349 351 352 352 355 1 4 10 18 20 22 25 26 28 36 32 4 337 339 343 342 352 356 347 351 8 10 8 2 353 347 346
214 215 215 217 218 219 219 218 218 219 219 221 224 230 237 240 241 242 244 250 256 261 266 270 273 276 279 281 282 280 276 273 272 273 275 277 278 277 274 273 271 270 273 276 279 282 284 285 286 288 289 291 295 302 309 323 334 338 342 341 344 342 336 344 353 358 1 2 4 9 11 11 13 17 21 24 27 28 29 31 26 3 344 338 347 341 341 350 345 345 351 347 346 345 337 330 330
230 227 223 223 223 223 223 221 221 221 222 225 228 234 239 243 244 247 251 258 264 268 271 272 273 274 276 278 278 275 272 269 268 268 270 272 273 273 271 270 268 267 270 274 279 283 287 290 292 293 293 296 303 313 321 330 332 335 344 348 351 349 350 359 6 11 13 14 18 19 20 22 24 25 27 29 30 30 29 29 27 15 2 351 356 354 343 343 335 331 336 335 335 334 330 325 324
236 237 232 227 226 226 225 225 226 226 227 229 234 240 246 252 256 259 262 265 268 271 272 271 272 272 273 273 273 271 269 268 267 268 269 269 268 266 265 263 263 264 268 274 282 288 294 297 297 301 307 312 320 325 329 333 333 339 351 355 360 5 11 16 18 22 25 29 33 34 34 35 35 34 35 38 38 35 33 34 33 25 15 8 4 359 347 345 341 336 336 334 333 329 327 325 323
231 236 235 231 228 226 225 227 230 233 233 233 236 244 253 261 267 269 270 271 272 272 272 271 270 270 269 268 267 267 268 267 267 267 264 262 259 256 254 253 255 260 266 275 284 292 299 302 303 310 316 319 327 331 335 347 348 348 354 4 15 20 25 28 32 37 40 42 44 44 43 42 41 41 39 40 42 40 40 41 41 38 30 23 19 12 4 358 354 351 350 348 344 339 334 329 323
228 229 231 231 229 227 226 225 230 236 239 239 241 246 255 262 266 270 273 274 274 272 271 269 267 266 264 261 262 263 262 261 259 257 254 248 243 237 233 231 231 240 254 272 287 300 305 308 311 315 323 331 343 344 350 5 13 8 9 21 29 33 39 45 49 51 50 49 49 48 48 46 46 47 45 43 43 41 41 45 48 49 48 46 43 39 35 30 25 22 19 15 9 2 355 345 335
227 227 227 229 230 230 229 226 229 237 244 247 249 252 257 262 267 270 271 268 264 260 259 258 254 250 246 239 234 234 226 218 223 221 216 205 190 179 167 168 159 168 256 291 305 310 309 311 317 327 345 0 19 23 25 28 33 38 36 38 43 47 52 55 57 57 55 54 54 54 54 53 53 52 50 47 46 46 48 53 57 58 60 58 53 53 55 52 47 44 39 34 28 23 16 7 355
227 224 224 224 227 229 229 228 230 237 246 251 255 257 260 263 264 258 247 239 229 219 210 186 162 162 176 179 174 170 152 134 148 154 155 148 133 138 142 140 100 318 299 306 308 306 313 327 349 17 40 49 52 51 49 49 51 54 52 51 53 54 55 57 59 61 59 57 56 57 57 57 57 55 53 52 53 56 58 60 63 64 64 60 58 61 59 54 50 47 44 40 35 30 25 18 9
243 224 220 217 220 224 223 224 230 235 242 249 252 254 255 254 249 234 204 186 178 165 154 138 129 146 179 189 182 173 162 162 184 173 143 125 118 146 272 319 313 301 292 293 300 320 12 51 66 72 72 69 65 64 63 61 61 62 59 57 56 56 57 60 61 60 57 56 57 56 55 54 55 55 55 54 56 58 59 61 62 62 61 62 64 63 57 51 48 46 44 42 39 37 33 26 16
358 226 220 214 214 217 213 214 224 229 233 237 240 240 241 237 224 203 186 182 171 156 147 143 145 192 217 216 211 211 214 219 225 224 231 289 261 279 295 294 284 269 251 200 120 99 96 92 87 83 78 74 71 69 66 63 63 63 63 62 61 60 61 61 58 55 55 56 55 52 52 53 53 54 54 55 57 56 56 60 61 59 58 61 62 57 50 46 44 43 44 45 45 45 45 43 39
38 114 217 216 214 212 206 211 217 220 224 228 228 225 225 218 201 194 194 191 182 169 164 187 232 242 246 243 240 239 241 244 242 237 237 226 195 192 258 255 238 202 155 125 115 109 104 96 89 84 79 75 72 69 66 64 63 63 65 67 67 66 64 58 56 59 61 59 54 50 52 55 56 57 57 58 59 60 59 59 58 55 52 52 51 47 43 41 39 39 40 42 44 44 46 49 49
41 51 154 207 214 208 201 211 217 217 222 225 221 217 215 207 198 196 196 196 196 201 223 261 268 269 273 273 267 259 254 247 223 191 176 160 138 130 149 162 154 139 125 116 112 106 100 94 87 83 79 76 73 70 68 66 66 66 68 70 68 65 61 60 67 70 66 60 57 57 59 60 60 60 58 56 55 56 56 53 51 49 46 44 42 40 37 36 36 36 36 36 37 39 42 45 47
41 47 65 156 196 197 196 213 222 218 221 224 220 216 211 204 199 199 198 202 211 227 253 279 285 285 288 288 281 266 233 194 166 147 143 136 125 126 133 135 131 123 116 112 107 102 96 91 87 83 81 78 75 72 69 68 68 69 70 68 64 59 59 71 79 73 63 59 59 60 60 60 60 59 56 50 47 48 49 47 46 44 43 42 42 40 35 32 33 34 34 34 34 37 40 42 41
41 46 53 80 159 185 198 218 226 220 222 226 224 217 207 201 199 201 204 211 224 242 266 289 294 292 292 291 278 248 188 158 143 133 129 124 123 127 130 128 123 117 111 107 102 98 93 90 87 85 83 80 77 74 71 69 69 73 72 67 64 63 66 78 79 65 54 54 55 55 55 56 55 54 53 48 45 44 45 45 43 40 38 38 39 39 37 34 33 32 30 28 29 31 35 38 37
41 43 49 59 103 193 206 220 222 219 222 227 226 217 203 196 197 201 206 215 229 252 277 293 293 291 291 281 250 197 156 139 129 124 122 122 125 127 126 122 117 112 106 102 98 95 92 89 88 88 87 84 81 78 74 73 74 77 75 69 67 68 69 71 65 49 44 48 52 54 55 57 55 53 51 46 42 40 41 40 38 36 33 32 32 34 34 33 32 30 26 22 20 19 21 25 27
49 44 46 54 64 132 202 213 215 215 222 226 224 216 202 195 195 196 199 209 224 251 279 288 283 280 264 205 167 147 134 128 124 122 122 123 125 124 121 116 111 107 103 100 96 94 92 90 91 93 92 88 84 80 77 76 78 79 76 70 67 67 63 57 48 41 40 42 46 49 51 48 45 45 44 39 35 35 37 35 31 30 28 28 28 29 28 27 27 26 24 20 16 13 11 11 13
58 52 46 46 54 67 126 193 208 211 218 223 220 211 202 199 198 197 200 207 213 226 252 256 225 174 159 152 141 131 126 122 120 119 119 119 120 119 115 111 107 105 103 99 97 96 95 94 96 98 97 92 85 80 77 76 76 74 69 63 60 57 55 49 43 41 39 37 39 40 39 38 33 29 29 28 26 26 30 28 25 25 25 26 28 27 24 22 22 21 20 18 15 12 9 7 7
56 60 53 45 48 64 92 135 173 190 201 206 204 199 196 194 190 179 172 170 159 149 148 163 163 148 144 138 129 124 121 118 115 113 113 114 113 112 110 108 106 106 106 103 101 100 99 100 102 103 101 91 83 79 76 73 70 64 58 52 47 43 43 38 33 33 32 27 26 23 23 27 23 18 16 17 14 13 16 16 15 18 19 23 27 26 22 20 18 17 15 13 11 9 7 5 5
39 61 68 60 55 68 93 113 130 145 160 163 161 160 154 146 138 129 128 132 132 130 134 144 144 139 135 129 123 120 117 114 111 109 108 108 107 106 105 105 106 108 108 107 105 103 103 105 107 106 99 86 80 76 70 65 58 51 47 42 35 32 32 27 21 20 21 16 8 2 2 3 358 354 357 3 3 360 360 2 6 6 6 13 19 21 19 16 15 13 11 8 7 5 4 3 3
6 37 81 88 80 80 98 110 113 117 122 126 129 126 121 118 114 112 117 125 127 127 129 133 135 133 130 125 121 117 115 113 111 109 107 106 105 106 105 105 106 109 110 109 108 107 107 109 108 104 95 84 78 71 60 48 37 32 33 31 26 25 23 16 9 10 11 7 360 350 345 344 340 339 345 350 350 347 346 350 355 351 353 3 7 10 12 11 11 10 7 5 4 2 1 360 0
318 316 243 128 113 102 110 118 114 110 108 108 112 115 117 117 111 109 119 124 125 126 130 133 133 131 128 125 121 118 116 116 114 113 110 108 107 108 110 111 111 113 114 114 112 110 110 109 107 101 93 86 78 64 46 32 24 19 20 19 15 15 14 6 1 2 2 358 356 351 345 340 339 340 342 341 340 339 338 340 342 339 343 351 352 357 3 5 8 10 8 5 3 1 359 357 356
243 264 262 223 165 138 130 131 124 116 110 106 105 108 113 115 116 124 128 127 128 131 135 138 136 132 129 125 120 118 117 117 119 119 117 114 112 112 115 118 118 117 118 119 117 113 111 108 103 96 85 77 67 50 32 20 15 13 14 14 10 7 5 1 359 358 357 354 353 354 352 345 341 343 341 336 333 334 336 337 336 333 335 338 339 345 353 356 0 4 5 3 1 359 357 354 352
232 235 244 247 225 187 165 157 143 127 117 114 110 110 114 119 133 147 140 133 136 140 142 142 139 135 132 127 122 118 117 118 121 123 124 122 120 119 121 123 123 122 122 122 120 116 112 107 95 78 65 55 38 27 18 12 12 10 11 11 7 4 360 357 357 355 354 353 352 352 352 348 344 345 341 334 329 331 334 335 332 329 328 328 330 335 342 345 349 353 355 356 356 354 353 351 350
235 233 231 235 241 225 200 184 175 163 147 133 120 118 123 129 139 148 144 140 142 145 146 144 141 138 136 133 129 124 121 121 123 125 127 126 125 124 125 126 128 127 126 125 124 121 115 107 79 57 54 42 23 15 12 10 11 8 7 6 2 359 355 352 353 352 351 352 351 349 349 348 345 345 340 332 330 333 334 331 328 324 320 319 322 327 332 335 341 346 349 350 350 349 348 348 348
238 236 232 226 233 237 224 206 191 193 197 188 166 145 139 142 145 148 149 147 148 149 149 148 146 145 144 142 139 133 128 123 123 123 123 124 124 124 124 127 129 129 128 126 121 122 117 104 84 64 44 21 12 11 9 7 7 3 1 1 355 352 350 348 348 348 347 348 349 349 348 346 344 342 338 332 332 334 333 330 326 321 314 312 315 320 323 329 336 342 346 348 347 347 347 346 346
239 238 236 228 224 231 233 223 204 195 209 211 198 176 159 157 157 157 157 155 155 156 156 156 156 156 157 157 155 147 137 129 125 120 115 113 113 116 121 125 130 131 130 127 124 124 119 107 86 52 16 2 1 5 2 359 0 357 355 354 349 346 347 347 345 345 345 346 346 348 347 346 343 341 338 335 334 333 331 329 326 321 314 307 307 311 316 324 333 339 343 345 346 346 345 345 345
240 238 237 231 225 225 228 230 218 203 206 209 201 188 175 170 165 163 167 167 165 165 165 167 168 169 172 176 181 179 168 158 144 128 111 99 93 95 108 125 138 140 134 130 133 136 131 115 67 16 355 350 352 355 352 351 351 349 347 346 343 341 344 345 343 343 343 343 344 345 346 345 344 342 340 337 335 333 330 328 326 323 316 304 298 302 310 320 328 335 339 342 343 344 343 342 344
242 238 237 233 229 225 223 228 226 216 211 208 204 198 187 181 173 169 175 179 178 176 176 177 180 183 186 191 200 206 209 213 218 211 193 68 44 31 20 194 197 183 174 162 161 186 243 291 311 326 333 335 339 342 342 342 341 340 340 340 339 339 341 341 341 341 341 341 342 344 344 344 343 342 339 338 335 333 330 328 326 324 318 305 293 297 306 316 323 330 335 338 340 339 339 340 342
245 241 238 233 229 225 223 227 226 221 218 214 210 206 198 194 188 183 185 189 190 189 187 188 191 194 197 201 208 215 222 232 244 253 262 277 294 310 308 284 260 250 252 265 278 286 288 295 304 312 319 325 331 333 334 334 334 334 336 336 337 337 337 338 338 339 339 340 341 342 342 341 340 339 337 337 336 334 331 330 329 328 324 311 295 298 306 312 318 324 329 333 335 335 335 336 339
247 244 238 232 228 225 225 228 227 223 222 221 218 214 208 204 202 199 195 197 202 201 198 199 200 203 206 210 215 221 228 235 245 254 263 270 277 286 290 279 265 258 264 275 285 291 294 296 302 307 313 319 324 327 327 328 329 330 332 333 334 335 334 334 335 336 337 338 338 339 339 338 337 336 335 336 337 336 335 335 335 335 332 320 306 305 309 311 315 320 325 330 332 332 332 333 336
244 244 239 233 229 225 225 229 229 226 224 225 227 223 218 214 211 209 203 204 213 211 208 208 209 212 215 217 222 226 231 236 243 250 258 265 269 275 278 273 265 261 265 276 282 286 291 295 299 305 310 315 319 321 322 323 325 328 329 331 332 332 332 332 334 335 335 336 336 336 336 336 335 334 334 336 338 339 338 338 338 337 335 328 318 314 313 315 317 319 324 329 330 330 329 330 331
240 242 241 235 230 226 225 228 231 229 224 227 235 233 227 224 219 215 211 211 219 219 215 215 216 219 221 223 225 227 231 235 241 247 255 261 264 269 270 267 265 267 272 278 282 285 290 294 299 304 308 312 315 317 319 320 323 325 327 329 330 330 331 332 333 333 334 334 334 334 333 333 334 333 333 334 336 338 339 339 339 337 335 332 326 321 319 319 320 321 324 326 328 328 327 325 326
239 241 242 238 232 229 226 227 232 231 224 227 237 238 234 232 227 222 218 217 222 224 222 221 223 224 226 227 228 228 230 233 238 244 251 256 259 263 264 263 266 272 277 281 284 288 292 296 300 304 308 311 313 314 316 317 319 321 324 327 328 329 330 331 332 332 332 333 332 331 331 332 333 333 333 332 332 333 335 337 338 337 333 331 328 326 324 322 321 320 320 320 324 327 324 321 321
241 240 241 239 235 232 229 228 230 230 226 228 236 239 238 237 232 229 227 225 227 228 227 226 228 230 231 232 232 232 232 233 236 241 245 248 250 254 257 261 267 274 280 283 287 291 295 298 301 304 307 309 311 312 313 314 316 318 321 323 325 327 328 330 331 332 332 332 331 331 331 331 332 333 332 331 330 329 329 330 333 334 331 329 331 332 331 328 324 321 318 316 319 324 322 317 315
244 241 241 240 238 235 231 229 230 231 229 232 237 239 239 239 234 233 236 234 230 231 232 230 231 235 237 236 237 238 236 235 236 238 240 242 245 249 253 259 267 274 279 283 288 292 295 298 301 303 305 307 309 310 311 312 313 315 317 321 324 325 327 329 331 332 332 332 332 331 331 332 332 333 332 331 329 327 325 324 325 330 332 332 332 333 333 331 328 324 321 318 319 322 321 315 310
246 244 242 240 240 238 235 232 233 234 233 236 238 236 238 241 235 232 238 239 233 233 237 236 235 238 241 240 240 240 240 240 241 242 244 246 248 251 255 260 268 274 278 283 286 290 293 296 299 301 303 305 307 308 309 310 311 313 316 319 322 325 328 330 332 333 332 331 331 331 331 331 332 331 330 330 329 327 325 322 321 324 327 327 326 327 329 330 330 328 326 323 322 322 320 314 307
246 246 243 241 240 240 238 236 235 235 234 237 238 233 236 243 237 229 236 240 237 237 241 241 239 240 242 244 244 242 243 245 246 249 252 254 257 258 261 265 270 276 279 282 285 288 291 294 296 298 300 302 304 306 307 308 310 312 316 319 322 325 328 330 332 332 331 330 331 331 330 329 329 329 328 328 328 327 326 323 321 320 319 319 319 321 324 327 329 330 328 326 324 322 319 312 305
243 244 242 238 238 238 238 236 234 233 232 235 238 233 233 243 240 231 235 240 239 239 242 243 242 242 243 246 247 246 247 248 248 250 253 257 261 263 266 270 273 276 279 281 284 287 289 291 293 295 297 299 300 302 305 307 309 313 316 320 323 326 327 329 330 330 329 328 327 327 326 325 325 325 324 324 324 324 324 323 321 320 319 316 314 316 321 323 325 328 327 324 323 323 319 311 306
240 243 242 238 237 236 236 235 232 232 231 233 238 235 233 241 241 234 236 239 240 241 241 242 243 245 246 246 247 249 250 251 252 253 255 257 260 263 267 270 273 275 277 280 283 285 288 289 291 293 294 296 298 301 303 306 309 313 317 320 323 326 327 328 328 327 326 323 323 323 322 321 321 322 322 322 322 323 324 323 321 320 317 313 310 313 317 319 321 324 324 322 321 321 319 313 309
237 241 243 240 238 236 236 235 233 233 232 232 238 237 236 241 240 236 238 238 240 242 242 243 244 245 245 244 246 249 251 253 255 256 258 260 263 266 268 270 273 275 277 280 282 285 286 287 289 291 293 295 297 300 303 307 310 313 318 321 323 325 326 326 326 325 322 321 320 321 321 320 319 320 322 323 323 324 325 324 321 318 313 310 310 313 315 315 317 320 322 322 320 319 316 314 312
234 238 240 239 237 235 235 235 234 234 233 232 236 238 239 242 240 237 238 239 240 242 243 245 245 244 244 244 245 247 249 252 254 256 258 262 264 266 268 270 273 275 277 280 282 283 285 287 289 291 293 296 298 301 304 307 311 314 317 320 322 324 324 324 324 322 321 321 321 321 321 318 316 317 320 320 318 320 322 322 318 315 312 311 313 314 314 313 314 317 319 319 319 317 314 314 315
233 235 237 238 238 236 234 235 235 236 235 233 236 238 240 242 240 237 239 241 241 243 244 245 245 245 245 245 245 246 248 250 253 255 258 260 263 265 266 268 271 274 277 279 281 283 285 288 290 292 294 297 299 302 305 308 310 313 316 318 321 323 323 323 322 321 322 324 324 322 319 316 315 317 316 314 314 315 317 317 315 314 314 316 317 315 313 312 313 315 317 316 316 316 314 314 316
234 235 237 238 238 237 235 234 234 235 235 233 235 237 240 243 241 236 238 242 243 243 244 244 245 245 245 246 246 247 248 250 252 254 256 259 263 265 267 268 271 273 276 279 281 283 286 288 290 292 295 297 299 302 305 307 309 311 314 316 320 322 322 322 321 319 321 323 322 319 316 315 317 318 315 312 314 315 316 316 315 313 313 316 317 314 312 312 313 314 315 314 313 314 314 314 315
234 234 236 238 239 239 237 235 234 236 236 235 236 237 239 243 244 240 239 243 244 245 245 244 245 245 246 247 248 248 248 250 252 253 255 258 261 265 267 270 272 274 276 278 280 283 285 287 289 292 294 296 299 301 303 306 307 309 311 314 318 320 319 318 318 318 318 318 316 314 313 314 316 316 315 314 314 315 315 314 313 310 310 312 314 313 312 314 314 314 314 314 313 313 313 314 315
233 232 233 236 236 237 238 236 235 236 237 237 238 238 238 243 247 246 243 244 246 247 248 248 247 247 247 248 249 249 250 250 252 253 255 257 261 264 267 270 272 274 275 277 279 282 284 286 289 291 293 295 297 299 301 303 305 306 308 312 316 316 315 316 315 314 314 312 313 314 314 316 317 314 313 314 313 310 309 308 306 305 307 309 309 310 312 314 314 314 314 314 313 312 311 311 313